Погода в Привольном

Россия / Волгоградская область     48°09′21″N   44°06′51″E
темп.,
°C
ветер,
м/с
пор.,
м/с
влажн.,
%
обл.,
%
осадки,
мм/ч
давл.,
гПа
погр.,
м
26 июля, пн
пн2600:00+23всв510410 0.0 1019249
03:00+21всв510400 0.0 1020217
06:00+22в59441 0.0 1020199
09:00+28в66305 0.0 1020888
12:00+32в54235 0.0 10203178
15:00+33всв432032 0.0 10183344
18:00+31св762268 0.0 10181820
21:00+26всв8143070 0.0 1019403
27 июля, вт
вт2700:00+24всв7143168 0.0 1020445
03:00+24в6103170 0.0 1020288
06:00+22всв583696 0.0 1021228
09:00+27всв6626100 0.0 1020699
12:00+27св5526100 0.0 1020715
15:00+30св1223100 0.0 10182490
18:00+28св4627100 0.0 1018475
21:00+24всв4731100 0.0 1018137
28 июля, ср
ср2800:00+24всв3432100 0.0 101877
03:00+21всв22364 0.0 101817
06:00+23св12365 0.0 101942
09:00+28ссв22264 0.0 10181154
12:00+30ссв23245 0.0 10173003
15:00+31с222126 0.0 10163185
18:00+31ссв2224100 0.0 10151365
21:00+28юв33287 0.0 101553
29 июля, чт
чт2900:00+25юз22325 0.0 101511
03:00+23зюз123535 0.0 101511
06:00+24зюз353814 0.0 1015104
09:00+31зюз452410 0.0 10151342
12:00+33зюз551938 0.0 10133339
15:00+34зюз56185 0.0 10123418
18:00+31зсз572177 0.0 1012940
21:00+28сз233354 0.0 101266
30 июля, пт
пт3000:00+28зюз363090 0.0 1011145
03:00+25юз473266 0.0 1011146
06:00+24зюз37365 0.0 1012189
09:00+31юз56232 0.0 1012864
12:00+34зюз76185 0.0 10112740
15:00+35зюз66185 0.0 10102700
18:00+34зюз56203 0.0 10092170
21:00+29юз46245 0.0 101098